Weather History for EGPM - November, 2012

Change the Weather History Date:

Wednesday, November 7, 2012

  Actual Average Record
Temperature  
Mean Temperature 44 °F -  
Max Temperature 51 °F 44 °F 53 °F (2011)
Min Temperature 37 °F 40 °F 35 °F (2010)
Degree Days  
Heating Degree Days 21    
Moisture  
Dew Point 43 °F    
Average Humidity 86    
Maximum Humidity 94    
Minimum Humidity 81    
Precipitation  
Precipitation 0.00 in - - ()
Sea Level Pressure  
Sea Level Pressure 29.54 in    
Wind  
Wind Speed 14 mph ()    
Max Wind Speed 29 mph    
Max Gust Speed -    
Visibility 5.0 miles    
Events Rain    
Averages and records for this station are not official NWS values.
T = Trace of Precipitation, MM = Missing Value Source: Averaged Metar Reports

Daily Weather History Graph

Daily Weather History Graph

Search for Another Location

Airport or City:

Trip Planner

Search our weather history database for the weather conditions in past years. The results will help you decide how hot, cold, wet, or windy it might be!

Date:

Astronomy

Nov. 07, 2012 Rise Set
Actual Time 7:45 AM GMT 3:50 PM GMT
Civil Twilight 6:58 AM GMT 4:38 PM GMT
Nautical Twilight 6:07 AM GMT 5:29 PM GMT
Astronomical Twilight 5:17 AM GMT 6:18 PM GMT
Moon 11:53 PM GMT (11/7) 1:32 PM GMT (11/7)
Length of Visible Light 9h 40m
Length of Day
8h 05m
Last Quarter, 45% of the Moon is Illuminated
Nov 7
Last Quarter
Nov 13
New
Nov 20
First Quarter
Nov 28
Full
Dec 6
Last Quarter

Hourly Weather History & Observations

Time (GMT) Temp. Windchill Dew Point Humidity Pressure Visibility Wind Dir Wind Speed Gust Speed Precip Events Conditions
12:20 AM 37.4 °F 34.9 °F 33.8 °F 87% 29.77 in 6.2 mi SSE 3.5 mph - N/A Rain Light Rain
12:50 AM 37.4 °F 32.8 °F 35.6 °F 93% 29.77 in 3.7 mi SSE 5.8 mph - N/A Rain Rain
1:20 AM 37.4 °F 32.8 °F 33.8 °F 87% 29.74 in 4.3 mi SSE 5.8 mph - N/A Rain Rain
1:50 AM 39.2 °F 34.2 °F 33.8 °F 81% 29.74 in 4.3 mi SSE 6.9 mph - N/A Rain Rain
2:20 AM 39.2 °F 33.6 °F 35.6 °F 87% 29.71 in - SSE 8.1 mph - N/A Rain Rain
2:50 AM 39.2 °F 33.0 °F 35.6 °F 87% 29.71 in - SE 9.2 mph - N/A   Haze
3:20 AM 39.2 °F 35.0 °F 35.6 °F 87% 29.68 in 2.8 mi East 5.8 mph - N/A   Haze
3:50 AM 41.0 °F 32.2 °F 37.4 °F 87% 29.65 in - SSE 18.4 mph - N/A   Drizzle
4:20 AM 44.6 °F 37.2 °F 39.2 °F 81% 29.65 in 2.8 mi South 17.3 mph - N/A Rain Rain
4:50 AM 46.4 °F 39.8 °F 42.8 °F 87% 29.62 in 4.3 mi SSW 16.1 mph - N/A Rain Rain
5:20 AM 48.2 °F - 42.8 °F 82% 29.62 in - WSW 17.3 mph - N/A   Drizzle
5:50 AM 48.2 °F - 44.6 °F 87% 29.59 in 1.7 mi SW 18.4 mph - N/A Rain Rain
6:20 AM 50.0 °F - 46.4 °F 87% 29.59 in 3.7 mi WSW 23.0 mph - N/A Rain Rain
6:50 AM 48.2 °F - 44.6 °F 87% 29.56 in 3.7 mi SW 21.9 mph - N/A Rain Rain
7:20 AM 50.0 °F - 46.4 °F 87% 29.56 in 2.5 mi WSW 25.3 mph - N/A Rain Rain
7:50 AM 50.0 °F - 46.4 °F 87% 29.56 in 2.5 mi WSW 26.5 mph - N/A Rain Rain
8:20 AM 50.0 °F - 46.4 °F 87% 29.53 in 1.9 mi WSW 27.6 mph - N/A Rain Rain
8:50 AM 50.0 °F - 46.4 °F 87% 29.53 in 5.0 mi WSW 25.3 mph - N/A Rain Light Rain
9:20 AM 50.0 °F - 46.4 °F 87% 29.53 in 2.2 mi WSW 25.3 mph - N/A   Drizzle
9:50 AM 50.0 °F - 48.2 °F 94% 29.50 in 4.3 mi WSW 27.6 mph - N/A   Light Drizzle
10:20 AM 50.0 °F - 46.4 °F 87% 29.50 in 5.0 mi WSW 24.2 mph - N/A Rain Light Rain
10:50 AM 50.0 °F - 46.4 °F 87% 29.50 in 2.8 mi WSW 28.8 mph - N/A Rain Light Rain
11:20 AM 51.8 °F - 48.2 °F 88% 29.50 in 6.2 mi WSW 25.3 mph - N/A   Scattered Clouds
11:50 AM 50.0 °F - 46.4 °F 87% 29.50 in 6.2 mi WSW 26.5 mph - N/A   Scattered Clouds
12:20 PM 50.0 °F - 46.4 °F 87% 29.50 in 5.0 mi WSW 24.2 mph - N/A   Drizzle
12:50 PM 50.0 °F - 44.6 °F 82% 29.50 in 6.2 mi WSW 23.0 mph - N/A   Scattered Clouds
1:20 PM 50.0 °F - 46.4 °F 87% 29.50 in 6.2 mi WSW 27.6 mph - N/A   Scattered Clouds
1:50 PM 50.0 °F - 44.6 °F 82% 29.50 in 6.2 mi WSW 24.2 mph - N/A Rain Light Rain
2:20 PM 50.0 °F - 46.4 °F 87% 29.47 in 6.2 mi WSW 21.9 mph - N/A   Scattered Clouds
2:50 PM 48.2 °F - 44.6 °F 87% 29.47 in 4.3 mi WSW 21.9 mph - N/A Rain Rain Showers
3:20 PM 48.2 °F - 44.6 °F 87% 29.47 in 6.2 mi WSW 18.4 mph - N/A   Scattered Clouds
3:50 PM 50.0 °F - 44.6 °F 82% 29.47 in 6.2 mi WSW 20.7 mph - N/A   Scattered Clouds
4:20 PM 48.2 °F - 44.6 °F 87% 29.47 in 6.2 mi WSW 19.6 mph - N/A   Scattered Clouds
4:50 PM 48.2 °F - 44.6 °F 87% 29.47 in 6.2 mi West 18.4 mph - N/A   Scattered Clouds
5:20 PM 46.4 °F 39.5 °F 42.8 °F 87% 29.47 in 6.2 mi West 17.3 mph - N/A   Scattered Clouds
5:50 PM 48.2 °F - 42.8 °F 82% 29.47 in 6.2 mi WSW 15.0 mph - N/A   Scattered Clouds
6:20 PM 48.2 °F - 44.6 °F 87% 29.47 in 6.2 mi WSW 12.7 mph - N/A   Scattered Clouds
6:50 PM 48.2 °F - 42.8 °F 82% 29.47 in 6.2 mi WSW 15.0 mph - N/A   Scattered Clouds
7:50 PM 48.2 °F - 42.8 °F 82% 29.47 in 6.2 mi WSW 16.1 mph - N/A   Scattered Clouds
8:20 PM 46.4 °F 40.7 °F 42.8 °F 87% 29.47 in 6.2 mi WSW 12.7 mph - N/A   Partly Cloudy
8:50 PM 48.2 °F - 42.8 °F 82% 29.47 in 6.2 mi WSW 12.7 mph - N/A Rain Rain
9:20 PM 46.4 °F 41.1 °F 42.8 °F 87% 29.47 in 6.2 mi WSW 11.5 mph - N/A   Partly Cloudy
9:50 PM 46.4 °F 41.9 °F 42.8 °F 87% 29.47 in 6.2 mi WSW 9.2 mph - N/A   Scattered Clouds
10:20 PM 46.4 °F 42.4 °F 42.8 °F 87% 29.47 in 6.2 mi WSW 8.1 mph - N/A Rain Rain
10:50 PM 46.4 °F 42.9 °F 42.8 °F 87% 29.47 in 6.2 mi WSW 6.9 mph - N/A   Scattered Clouds
11:20 PM 46.4 °F 42.9 °F 41.0 °F 81% 29.47 in 6.2 mi WSW 6.9 mph - N/A   Partly Cloudy
11:50 PM 44.6 °F 40.7 °F 41.0 °F 87% 29.47 in 6.2 mi WSW 6.9 mph - N/A   Partly Cloudy